Weather History for Wadesboro, NC

Change the Weather History Date:

Wednesday, February 5, 2014

  Actual Average (KCLT) Record (KCLT)
Temperature  
Mean Temperature 49 °F 42 °F  
Max Temperature 60 °F 53 °F 78 °F (1890)
Min Temperature 38 °F 31 °F 6 °F (1886)
Degree Days  
Heating Degree Days 16 23  
Month to date heating degree days 116  
Since 1 July heating degree days 2223  
Cooling Degree Days 0 0  
Month to date cooling degree days 0  
Year to date cooling degree days 0  
Moisture  
Dew Point 41 °F    
Average Humidity 84    
Maximum Humidity 98    
Minimum Humidity 51    
Precipitation  
Precipitation 0.05 in 0.11 in 2.00 in (2010)
Month to date precipitation 0.56  
Year to date precipitation 3.97  
Snow  
Snow 0.00 in 0.10 in 3.50 in (1929)
Month to date snowfall 0.3  
Since 1 July snowfall 2.8  
Snow Depth -    
Sea Level Pressure  
Sea Level Pressure 29.94 in    
Wind  
Wind Speed 2 mph (West)    
Max Wind Speed 16 mph    
Max Gust Speed 22 mph    
Visibility 6 miles    
Events Rain    
T = Trace of Precipitation, MM = Missing Value Source: NWS Daily Summary

Daily Weather History Graph

Daily Weather History Graph

Search for Another Location

Airport:

Trip Planner

Search our weather history database for the weather conditions in past years. The results will help you decide how hot, cold, wet, or windy it might be!

Date:

Astronomy

Feb. 05, 2014 Rise Set
Actual Time 7:15 AM EST 5:53 PM EST
Civil Twilight 6:49 AM EST 6:19 PM EST
Nautical Twilight 6:19 AM EST 6:49 PM EST
Astronomical Twilight 5:49 AM EST 7:19 PM EST
Moon 10:46 AM EST (2/5) No Moon Set
Length of Visible Light 11h 30m
Length of Day
10h 37m
Waxing Crescent, 39% of the Moon is Illuminated
Feb 5
Waxing Crescent
Feb 6
First Quarter
Feb 14
Full
Feb 22
Last Quarter
Mar 1
New

Hourly Weather History & Observations

Time (EST) Temp. Windchill Dew Point Humidity Pressure Visibility Wind Dir Wind Speed Gust Speed Precip Events Conditions
12:15 AM 38.7 °F - 37.9 °F 97% 30.12 in 2.0 mi Calm Calm - 0.01 in Rain Light Rain
12:35 AM 38.7 °F - 37.9 °F 97% 30.10 in 1.8 mi Calm Calm - 0.01 in Rain Rain
12:55 AM 38.7 °F - 37.9 °F 97% 30.08 in 2.0 mi Calm Calm - 0.01 in Rain Light Rain
1:15 AM 38.7 °F - 37.9 °F 97% 30.08 in 2.0 mi Calm Calm - N/A   Overcast
1:35 AM 38.8 °F - 38.3 °F 98% 30.07 in 2.0 mi Calm Calm - N/A   Overcast
1:55 AM 38.7 °F - 37.9 °F 97% 30.06 in 2.0 mi Calm Calm - N/A   Overcast
2:15 AM 38.7 °F 35.2 °F 37.9 °F 97% 30.06 in 1.8 mi NNW 4.6 mph - N/A   Overcast
2:35 AM 38.7 °F - 37.9 °F 97% 30.03 in 1.8 mi Calm Calm - N/A   Overcast
2:55 AM 38.7 °F - 37.9 °F 97% 30.02 in 1.5 mi Calm Calm - N/A   Overcast
3:15 AM 38.7 °F - 37.9 °F 97% 30.00 in 1.5 mi Calm Calm - N/A   Overcast
3:35 AM 38.5 °F - 37.8 °F 97% 30.00 in 1.5 mi Calm Calm - N/A   Overcast
3:55 AM 38.7 °F - 37.9 °F 97% 29.99 in 1.2 mi Calm Calm - 0.01 in   Overcast
4:15 AM 38.7 °F - 37.9 °F 97% 29.97 in 2.5 mi Calm Calm - 0.01 in Rain Light Rain
4:35 AM 38.5 °F - 37.8 °F 97% 29.96 in 2.5 mi Calm Calm - 0.01 in   Overcast
4:55 AM 38.7 °F - 37.9 °F 97% 29.92 in 1.5 mi Calm Calm - 0.01 in   Overcast
5:15 AM 38.5 °F - 37.8 °F 97% 29.93 in 1.0 mi Calm Calm - N/A   Overcast
5:35 AM 38.7 °F - 37.9 °F 97% 29.94 in 1.2 mi Calm Calm - N/A   Overcast
5:55 AM 38.8 °F 36.5 °F 38.3 °F 98% 29.96 in 1.2 mi WNW 3.5 mph - N/A   Overcast
6:15 AM 38.7 °F - 38.1 °F 98% 29.95 in 1.0 mi Calm Calm - N/A   Overcast
6:35 AM 38.7 °F - 37.9 °F 97% 29.94 in 1.2 mi Calm Calm - N/A   Overcast
6:55 AM 38.8 °F - 38.3 °F 98% 29.95 in 1.5 mi Calm Calm - N/A   Overcast
7:15 AM 38.8 °F - 38.3 °F 98% 29.95 in 1.5 mi Calm Calm - N/A   Overcast
7:35 AM 38.8 °F - 38.3 °F 98% 29.93 in 1.2 mi Calm Calm - N/A   Light Drizzle
7:55 AM 38.8 °F - 38.3 °F 98% 29.93 in 1.5 mi Calm Calm - N/A Rain Rain
8:15 AM 39.2 °F 37.0 °F 38.5 °F 97% 29.92 in 2.0 mi SE 3.5 mph - N/A Rain Light Rain
8:35 AM 39.6 °F 37.4 °F 38.8 °F 97% 29.91 in 5.0 mi SE 3.5 mph - N/A Rain Light Rain
8:55 AM 40.1 °F 36.9 °F 39.4 °F 97% 29.90 in 10.0 mi SSE 4.6 mph - N/A   Overcast
9:15 AM 40.5 °F 37.3 °F 39.7 °F 97% 29.90 in 5.0 mi SSE 4.6 mph - N/A   Light Drizzle
9:35 AM 41.4 °F 39.4 °F 40.6 °F 97% 29.89 in 5.0 mi South 3.5 mph - 0.02 in Rain Light Rain
9:55 AM 42.4 °F - 41.9 °F 98% 29.88 in 7.0 mi Calm Calm - 0.02 in Rain Light Rain
10:15 AM 42.1 °F 39.2 °F 41.4 °F 97% 29.91 in 5.0 mi West 4.6 mph - N/A Rain Light Rain
10:35 AM 42.1 °F - 41.4 °F 97% 29.90 in 7.0 mi Calm Calm - N/A   Overcast
10:55 AM 42.8 °F - 41.9 °F 97% 29.90 in 7.0 mi Calm Calm - N/A   Overcast
11:15 AM 43.3 °F - 42.8 °F 98% 29.90 in 7.0 mi Calm Calm - N/A   Overcast
11:35 AM 44.2 °F - 43.5 °F 97% 29.89 in 7.0 mi Calm Calm - N/A   Overcast
11:55 AM 45.0 °F - 44.2 °F 97% 29.88 in 5.0 mi Calm Calm - N/A   Overcast
12:15 PM 46.4 °F - 45.5 °F 97% 29.87 in 5.0 mi Calm Calm - N/A   Overcast
12:35 PM 48.2 °F - 46.9 °F 95% 29.85 in 5.0 mi SSW 3.5 mph - N/A   Overcast
12:55 PM 50.9 °F - 49.3 °F 94% 29.83 in 10.0 mi SSW 5.8 mph - N/A   Overcast
1:15 PM 54.1 °F - 51.4 °F 91% 29.83 in 10.0 mi SW 6.9 mph - N/A   Overcast
1:35 PM 57.2 °F - 50.7 °F 79% 29.82 in 10.0 mi SW 8.1 mph 20.7 mph N/A   Scattered Clouds
1:55 PM 57.7 °F - 50.4 °F 76% 29.82 in 10.0 mi SW 10.4 mph 16.1 mph N/A   Scattered Clouds
2:15 PM 59.2 °F - 50.2 °F 72% 29.82 in 10.0 mi WSW 8.1 mph - N/A   Clear
2:35 PM 59.7 °F - 47.3 °F 63% 29.82 in 10.0 mi West 8.1 mph - N/A   Clear
2:55 PM 59.5 °F - 46.4 °F 62% 29.83 in 10.0 mi West 4.6 mph - N/A   Clear
3:15 PM 59.5 °F - 46.8 °F 63% 29.83 in 10.0 mi West 4.6 mph - N/A   Clear
3:35 PM 60.3 °F - 46.2 °F 60% 29.84 in 10.0 mi WSW 5.8 mph - N/A   Clear
3:55 PM 60.1 °F - 45.9 °F 59% 29.85 in 10.0 mi WSW 6.9 mph - N/A   Clear
4:15 PM 60.1 °F - 45.7 °F 59% 29.85 in 10.0 mi Calm Calm - N/A   Clear
4:35 PM 59.9 °F - 45.7 °F 59% 29.86 in 10.0 mi SW 5.8 mph - N/A   Clear
4:55 PM 59.5 °F - 46.0 °F 61% 29.87 in 10.0 mi WSW 3.5 mph - N/A   Clear
5:15 PM 59.2 °F - 46.4 °F 63% 29.88 in 10.0 mi Calm Calm - N/A   Clear
5:35 PM 57.9 °F - 46.4 °F 65% 29.89 in 10.0 mi Calm Calm - N/A   Clear
5:55 PM 55.2 °F - 47.1 °F 74% 29.89 in 10.0 mi Calm Calm - N/A   Clear
6:15 PM 51.8 °F - 47.5 °F 85% 29.90 in 10.0 mi Calm Calm - N/A   Clear
6:35 PM 51.1 °F - 47.5 °F 87% 29.90 in 10.0 mi Calm Calm - N/A   Clear
6:55 PM 49.1 °F - 46.8 °F 92% 29.91 in 10.0 mi Calm Calm - N/A   Clear
7:15 PM 47.1 °F - 44.6 °F 91% 29.92 in 10.0 mi Calm Calm - N/A   Clear
7:35 PM 46.4 °F - 45.0 °F 95% 29.93 in 10.0 mi Calm Calm - N/A   Scattered Clouds
7:55 PM 46.4 °F - 45.0 °F 95% 29.93 in 10.0 mi Calm Calm - N/A   Mostly Cloudy
8:15 PM 47.3 °F - 46.2 °F 96% 29.96 in 10.0 mi NNW 12.7 mph 18.4 mph N/A   Mostly Cloudy
8:35 PM 51.3 °F - 45.0 °F 79% 29.98 in 10.0 mi NNW 4.6 mph - N/A   Overcast
8:55 PM 51.1 °F - 36.7 °F 58% 30.00 in 10.0 mi NW 16.1 mph 21.9 mph N/A   Overcast
9:15 PM 50.0 °F - 32.4 °F 51% 30.01 in 10.0 mi NW 9.2 mph - N/A   Overcast
9:35 PM 49.3 °F - 32.2 °F 52% 30.02 in 10.0 mi NW 10.4 mph - N/A   Overcast
9:55 PM 48.9 °F - 32.0 °F 52% 30.03 in 10.0 mi NW 13.8 mph 19.6 mph N/A   Overcast
10:15 PM 47.8 °F - 32.2 °F 55% 30.05 in 10.0 mi NW 6.9 mph - N/A   Overcast
10:35 PM 47.5 °F - 31.1 °F 53% 30.06 in 10.0 mi NW 10.4 mph 20.7 mph N/A   Overcast
10:55 PM 46.8 °F - 30.7 °F 54% 30.06 in 10.0 mi NW 5.8 mph - N/A   Overcast
11:15 PM 45.5 °F 41.3 °F 30.2 °F 55% 30.08 in 10.0 mi NW 8.1 mph - N/A   Mostly Cloudy
11:35 PM 45.3 °F 39.3 °F 29.5 °F 54% 30.09 in 10.0 mi NNW 12.7 mph 19.6 mph N/A   Overcast
11:55 PM 44.2 °F 38.8 °F 29.3 °F 56% 30.10 in 10.0 mi NNW 10.4 mph 17.3 mph N/A   Overcast